Welcome to the New NWS' Forecast!
Most changes are behind the scenes, but click here for differences you might notice.
Latest weather observations around

Windsor Locks, Bradley International Airport (KBDL)

Using English Units (Switch to International System of Units)
Date/ Time (EST) Wind (mph) Vis. (mi) Weather Sky Cond. Temp (°F) Rel. Humidity Wind Chill (°F) Heat Index (°F) Pressure Precip. (in)
Air Dwpt 6 hour Altimeter (inHg) Sea level (inHg) 1 hr 3 hr 6 hr
Max Min
Jan 23 07:51 N 6 0.5 Light Rain and Fog/Mist VV002 34 34     100% 29   29.83 29.84 0    
Jan 23 06:51 N 5 0.5 Light Drizzle and Fog/Mist VV002 33 33     100% 29   29.89 29.89 0   0
Jan 23 05:51 N 3 0.25 Light Drizzle and Fog/Mist VV002 33 33     100% 30   29.93 29.93 0    
Jan 23 04:51 NW 5 0.25 Fog VV002 33 33     100% 29   29.96 29.96      
Jan 23 03:51 N 6 0.5 Fog/Mist VV002 34 34     100% 29   29.98 29.98 0 0  
Jan 23 02:51 N 7 0.5 Light Drizzle and Fog/Mist SCT001 OVC002 34 34     100% 28   30.02 30.03 0    
Jan 23 01:51 N 7 1.25 Fog/Mist OVC002 34 34     100% 28   30.06 30.06 0    
Jan 23 00:51 NNE 8 1.25 Light Drizzle and Fog/Mist OVC002 34 34     100% 27   30.09 30.1 0   0
Jan 22 23:51 N 6 1.25 Light Drizzle and Fog/Mist OVC002 34 34     100% 29   30.13 30.13 0    
Jan 22 22:51 N 8 1.25 Light Drizzle and Fog/Mist OVC003 34 34     100% 27   30.13 30.14 0    
Jan 22 21:51 NNE 8 2.5 Light Drizzle and Fog/Mist BKN004 OVC007 35 35     100% 29   30.17 30.17 0 0  
Jan 22 20:51 NNE 7 2.5 Fog/Mist BKN004 OVC007 36 35     96% 30   30.19 30.19      
Jan 22 19:51 NNE 6 2.5 Fog/Mist OVC009 36 36     100% 31   30.21 30.21 0    
Jan 22 18:51 NNE 6 2.5 Light Rain and Fog/Mist OVC009 37 36     96% 32   30.21 30.22 0   0
Jan 22 17:51 NNE 7 2.5 Light Rain and Fog/Mist OVC008 37 36     96% 32   30.2 30.21 0    
Jan 22 16:51 NNE 6 2 Fog/Mist OVC007 38 37     97% 33   30.2 30.21      
Jan 22 16:05 NNE 6 1.75 Fog/Mist OVC006 38 37     97% 33   30.2        
Jan 22 15:51 NNE 7 2 Fog/Mist OVC006 38 37     97% 33   30.2 30.21      
Jan 22 14:51 N 6 2.5 Fog/Mist OVC008 38 37     97% 33   30.19 30.2      
Jan 22 13:51 N 6 2.5 Fog/Mist OVC007 37 36     96% 32   30.2 30.2      
Jan 22 12:51 N 5 2.5 Fog/Mist BKN005 OVC009 37 36     96% 33   30.21 30.21     0
Jan 22 11:51 NNE 8 2.5 Fog/Mist OVC006 36 36     100% 30   30.23 30.24      
Jan 22 11:01 NNW 10 1.5 Fog/Mist OVC005 36 35     96% 29   30.25        
Jan 22 10:51 NNW 8 1.5 Fog/Mist OVC004 36 35     96% 30   30.25 30.25 0    
Jan 22 10:23 NNW 7 1.5 Fog/Mist OVC003 36 36     100% 30   30.25   0    
Jan 22 09:51 NNW 6 2 Light Rain and Fog/Mist BKN003 OVC020 36 36     100% 31   30.25 30.26 0 0  
Jan 22 09:49 5 2 Light Rain and Fog/Mist SCT003 BKN020 OVC050 36 36     100% 32   30.24   0    
Jan 22 09:32 E 7 2 Light Rain and Fog/Mist FEW014 BKN018 OVC050 35 35     100% 29   30.23   0    
Jan 22 09:06 N 5 2.5 Light Rain and Fog/Mist OVC014 35 34     96% 31   30.25   0    
Jan 22 08:51 N 5 4 Light Rain and Fog/Mist OVC015 35 34     96% 31   30.24 30.25 0    
Jan 22 07:59 N 3 4 Light Rain and Fog/Mist OVC015 34 33     96% 31   30.22   0    
Jan 22 07:51 NNW 3 6 Light Rain and Fog/Mist OVC014 34 33     96% 31   30.22 30.22 0    
Jan 22 07:08 N 3 6 Fog/Mist OVC014 34 33     96% 31   30.2   0    
Jan 22 06:51 NNE 3 8 Light Rain OVC015 35 33     92% 32   30.19 30.19 0   0
Jan 22 05:51 Calm 8 Light Rain OVC018 35 32     88%     30.17 30.17 0    
Jan 22 04:51 Calm 8 Cloudy OVC021 34 32     92%     30.17 30.17 0    
Jan 22 03:51 N 3 8 Light Rain OVC021 34 32     92% 31   30.16 30.16 0 0  
Jan 22 02:51 Calm 10 Cloudy BKN024 OVC031 34 33     96%     30.17 30.17      
Jan 22 01:51 Calm 10 Cloudy OVC025 35 32     88%     30.17 30.17 0    
Jan 22 01:12 Calm 10 Light Rain BKN028 OVC036 35 31     85%     30.17   0    
Jan 22 00:51 Calm 10 Light Rain OVC033 35 31     85%     30.17 30.17 0   0
Jan 21 23:51 Calm 10 Cloudy OVC039 35 30     82%     30.18 30.18 0    
Jan 21 22:51 W 3 10 Cloudy OVC050 34 30     85% 31   30.18 30.19      
Jan 21 21:51 Calm 10 Cloudy BKN060 OVC200 34 30     85%     30.18 30.19      
Jan 21 20:51 ENE 3 10 Cloudy BKN060 OVC200 35 29     78% 32   30.17 30.18      
Jan 21 19:51 Calm 10 Partly Cloudy FEW200 SCT220 33 28     82%     30.17 30.18      
Jan 21 18:51 N 5 10 Partly Cloudy SCT200 SCT220 39 29     67% 36   30.17 30.17      
Jan 21 17:51 NNE 5 10 Mostly Clear FEW250 40 29     65% 37   30.15 30.15      
Jan 21 16:51 Calm 10 Partly Cloudy FEW160 FEW200 SCT250 44 29     55%     30.13 30.14      
Jan 21 15:51 WSW 5 10 Mostly Cloudy FEW160 FEW200 BKN250 48 31     51% 46   30.13 30.13      
Jan 21 14:51 Calm 10 Mostly Cloudy FEW160 BKN250 48 30     50%     30.12 30.12      
Jan 21 13:51 Calm 10 Mostly Cloudy FEW038 BKN250 48 30     50%     30.11 30.12      
Jan 21 12:51 ESE 3 10 Mostly Cloudy FEW038 FEW150 BKN250 47 31     53% 46   30.12 30.13      
Jan 21 11:51 ENE 5 10 Partly Cloudy FEW036 FEW150 SCT250 46 31     55% 44   30.15 30.15      
Jan 21 10:51 3 10 Partly Cloudy FEW160 SCT250 45 32     60% 44   30.17 30.17      
Jan 21 09:51 WSW 6 10 Mostly Cloudy FEW160 BKN250 41 31     67% 37   30.17 30.17      
Jan 21 08:51 W 3 10 Mostly Cloudy FEW100 FEW160 BKN250 34 29     82% 31   30.16 30.16      
Jan 21 07:51 W 3 9 Mostly Cloudy FEW100 FEW180 BKN250 27 25     92% 23   30.13 30.14      
Jan 21 06:51 SW 6 10 Mostly Cloudy FEW100 SCT180 BKN250 24 23     96% 17   30.1 30.1      
Jan 21 05:51 Calm 10 Partly Cloudy SCT250 25 22     88%     30.09 30.09      
Jan 21 04:51 SSE 3 10 Partly Cloudy FEW180 SCT250 26 23     88% 22   30.06 30.07      
Jan 21 03:51 Calm 10 Partly Cloudy FEW180 SCT250 27 24     89%     30.05 30.06      
Jan 21 02:51 3 10 Mostly Cloudy FEW180 BKN250 28 25     88% 24   30.05 30.05      
Jan 21 01:51 Calm 10 Partly Cloudy FEW180 SCT250 28 24     85%     30.03 30.03      
Jan 21 00:51 Calm 10 Partly Cloudy FEW200 SCT250 28 25     88%     30.01 30.01      
Jan 20 23:51 SW 3 10 Partly Cloudy FEW200 SCT250 29 25     85% 25   30 30      
Jan 20 22:51 WNW 3 10 Mostly Clear FEW200 29 25     85% 25   30 30.01      
Jan 20 21:51 WSW 3 10 Mostly Clear FEW200 34 26     72% 31   29.99 29.99      
Jan 20 20:51 SSW 7 10 Partly Cloudy SCT200 36 26     67% 30   29.97 29.97      
Jan 20 19:51 SSW 6 10 Partly Cloudy FEW200 SCT250 39 27     62% 35   29.95 29.96      
Jan 20 18:51 WSW 5 10 Partly Cloudy FEW170 FEW220 SCT250 41 26     55% 38   29.92 29.93      
Jan 20 17:51 SSW 7 10 Mostly Cloudy FEW170 SCT220 BKN250 41 27     57% 36   29.88 29.88      
Jan 20 16:51 SW 8 10 Partly Cloudy FEW110 FEW150 SCT220 42 27     55% 37   29.85 29.85      
Jan 20 15:51 WSW 13 10 Mostly Cloudy SCT150 BKN220 45 28     51% 39   29.82 29.82      
Jan 20 14:51 W 13 10 Mostly Cloudy FEW150 BKN220 45 27     49% 39   29.79 29.8      
Jan 20 13:51 WSW 17 10 Mostly Cloudy FEW150 BKN240 45 27     49% 38   29.77 29.78      
Jan 20 12:51 WSW 13 10 Mostly Cloudy FEW120 BKN240 44 26     49% 38   29.76 29.76      
Jan 20 11:51 SW 6 10 Mostly Cloudy SCT190 BKN250 44 25     47% 41   29.78 29.78      
Jan 20 10:51 SSE 6 10 Mostly Cloudy FEW080 BKN190 BKN250 41 25     53% 37   29.79 29.79      
Jan 20 09:51 S 10 10 Mostly Cloudy BKN170 BKN220 39 24     55% 32   29.77 29.78      
Jan 20 08:51 S 11 10 Mostly Cloudy BKN150 BKN220 38 23     55% 30   29.78 29.78      
Jan 20 07:51   10 Mostly Cloudy FEW120 BKN220 34 21     59%     29.74 29.75      
Jun 10 10:51 SSW 9 10 Mostly Cloudy FEW070 SCT095 BKN250 80 53     39%   80 29.97 29.97      
Jun 07 15:51 6 10 Mostly Clear FEW060 FEW080 74 45     36%   73 29.95 29.94      
Jun 07 09:51 N 10 10 Mostly Cloudy FEW020 BKN055 58 49     72%     29.99 29.99